Regional Weather Roundup
Issued by NWS Cleveland, OH

Home | Current Version | Previous Version | Graphics & Text | Print | Product List | Glossary On
Versions: 1 2 3 4 5 6 7 8 9 10 11 12 13 14 15 16 17 18 19 20 21 22 23 24 25 26 27 28 29 30 31 32 33 34 35 36 37 38 39 40 41 42 43 44 45 46 47 48 49 50
000
ASUS41 KCLE 100900
RWRCLE
OHIO REGIONAL WEATHER ROUNDUP
NATIONAL WEATHER SERVICE WILMINGTON, OH
500 AM EDT THU JUL 10 2014

NOTE: "FAIR" INDICATES FEW OR NO CLOUDS BELOW 12,000 FEET WITH NO
SIGNIFICANT WEATHER AND/OR OBSTRUCTIONS TO VISIBILITY.

OHZ001>008-015>018-024>027-034-035-043-044-101000-
   NORTHWEST OHIO

CITY           SKY/WX    TMP DP  RH WIND       PRES   REMARKS
DEFIANCE       CLEAR     54  51  90 CALM      30.08S
FINDLAY        CLEAR     57  55  93 W3        30.06S
TOLEDO EXPRESS CLEAR     58  53  84 CALM      30.06S
TOLEDO METCALF CLEAR     61  55  81 CALM      30.07R
LIMA           CLOUDY    64  56  75 N6        30.07S
$$

OHZ009>014-019>023-028>033-038-089-101000-
   NORTHEAST OHIO

CITY           SKY/WX    TMP DP  RH WIND       PRES   REMARKS
CLE-HOPKINS    MOCLDY    62  58  86 CALM      30.08R
CLE-LAKEFRONT  MOCLDY    64  55  72 SE7       30.05R
CUY CO. ARPT   NOT AVBL
LORAIN-ELYRIA  PTCLDY    63  59  87 CALM      30.06S FOG
ASHTABULA      CLEAR     53  51  93 CALM      30.08R
AKRON-CANTON   CLEAR     59  56  89 NE5       30.06S FOG
WOOSTER        NOT AVBL
MANSFIELD      PTCLDY    59  59 100 CALM      30.07S FOG
YOUNGSTOWN     PTCLDY    57  56  96 E3        30.07R
$$

OHZ042-051>053-060>062-070>072-077>081-101000-
  SOUTHWEST OHIO

CITY           SKY/WX    TMP DP  RH WIND       PRES   REMARKS
CINC-COVINGTON PTCLDY    65  58  78 CALM      30.06R
CINC-LUNKEN    PTCLDY    62  61  96 CALM      30.06R
HAMILTON       PTCLDY    60  58  92 CALM      30.06S
DAYTON         NOT AVBL
WRIGHT-PAT AFB CLEAR     62  58  87 NE2       30.06S
DAYTON GENERAL CLEAR     62  58  86 N6        30.05S
WILMINGTON     PTCLDY    63  57  81 N5        30.06R
$$

OHZ036-037-039>041-045>050-054>059-063>069-073>076-082>088-101000-
  CENTRAL AND SOUTHEAST OHIO

CITY           SKY/WX    TMP DP  RH WIND       PRES   REMARKS
COLUMBUS       PTCLDY    66  60  81 CALM      30.04R
OSU AIRPORT    CLEAR     62  58  86 CALM      30.05S
BOLTON FIELD   NOT AVBL
RICKENBACK AFB NOT AVBL
NEWARK         PTCLDY    60  58  92 CALM      30.04S FOG
MARION         PTCLDY    61  58  90 N5        30.06S
LANCASTER      MOCLDY    61  58  90 CALM      30.05R
ZANESVILLE     CLOUDY    61  58  90 CALM      30.04S
NEW PHILLY     CLEAR     59  58  96 CALM      30.06R
$$



USA.gov is the U.S. government's official web portal to all federal, state and local government web resources and services.